TimeEDT,TemperatureF,Dew PointF,Humidity,Sea Level PressureIn,VisibilityMPH,Wind Direction,Wind SpeedMPH,Gust SpeedMPH,PrecipitationIn,Events,Conditions,WindDirDegrees,DateUTC
12:14 AM,48.2,46.4,93,29.77,10.0,NW,4.6,-,N/A,,Overcast,320,2012-10-14 04:14:00
12:34 AM,48.2,46.4,93,29.76,10.0,NNW,6.9,-,N/A,,Overcast,330,2012-10-14 04:34:00
12:54 AM,48.2,46.4,93,29.76,10.0,NNW,8.1,-,N/A,,Overcast,330,2012-10-14 04:54:00
1:15 AM,48.2,46.4,93,29.77,10.0,NNW,6.9,-,N/A,,Overcast,330,2012-10-14 05:15:00
1:34 AM,48.2,44.6,87,29.78,10.0,NNW,5.8,-,N/A,,Overcast,330,2012-10-14 05:34:00
1:55 AM,48.2,44.6,87,29.78,10.0,North,4.6,-,N/A,,Overcast,350,2012-10-14 05:55:00
2:15 AM,48.2,44.6,87,29.76,10.0,North,5.8,-,N/A,,Overcast,360,2012-10-14 06:15:00
2:34 AM,48.2,44.6,87,29.77,10.0,North,5.8,-,N/A,,Overcast,350,2012-10-14 06:34:00
2:55 AM,48.2,44.6,87,29.77,10.0,North,4.6,-,N/A,,Overcast,350,2012-10-14 06:55:00
3:34 AM,46.4,44.6,93,29.77,10.0,North,4.6,-,N/A,Rain,Light Rain,10,2012-10-14 07:34:00
3:55 AM,46.4,44.6,93,29.77,10.0,North,5.8,-,N/A,,Overcast,350,2012-10-14 07:55:00
4:14 AM,46.4,44.6,93,29.77,10.0,North,3.5,-,N/A,,Overcast,10,2012-10-14 08:14:00
4:35 AM,46.4,44.6,93,29.76,10.0,NNE,4.6,-,N/A,,Overcast,20,2012-10-14 08:35:00
4:55 AM,46.4,44.6,93,29.77,10.0,Calm,Calm,-,N/A,,Overcast,0,2012-10-14 08:55:00
5:14 AM,46.4,44.6,93,29.76,10.0,Calm,Calm,-,N/A,,Overcast,0,2012-10-14 09:14:00
5:35 AM,46.4,44.6,93,29.77,10.0,Calm,Calm,-,N/A,,Overcast,0,2012-10-14 09:35:00
5:55 AM,46.4,44.6,93,29.77,10.0,Calm,Calm,-,N/A,,Overcast,0,2012-10-14 09:55:00
6:14 AM,46.4,44.6,93,29.77,10.0,Calm,Calm,-,N/A,,Overcast,0,2012-10-14 10:14:00
6:35 AM,46.4,44.6,93,29.75,10.0,North,6.9,-,N/A,,Overcast,360,2012-10-14 10:35:00
6:54 AM,46.4,44.6,93,29.75,10.0,North,5.8,-,N/A,,Overcast,360,2012-10-14 10:54:00
7:15 AM,46.4,44.6,93,29.74,10.0,North,5.8,-,N/A,,Overcast,10,2012-10-14 11:15:00
7:35 AM,46.4,44.6,93,29.74,10.0,North,6.9,-,N/A,,Overcast,10,2012-10-14 11:35:00
7:54 AM,46.4,44.6,93,29.74,10.0,North,6.9,-,N/A,,Overcast,10,2012-10-14 11:54:00
8:15 AM,46.4,44.6,93,29.73,10.0,NNE,6.9,-,N/A,,Overcast,20,2012-10-14 12:15:00
8:35 AM,46.4,42.8,87,29.73,10.0,NNE,5.8,-,N/A,,Overcast,30,2012-10-14 12:35:00
8:54 AM,46.4,42.8,87,29.73,10.0,NNE,6.9,-,N/A,,Overcast,20,2012-10-14 12:54:00
9:15 AM,46.4,42.8,87,29.71,10.0,North,5.8,-,N/A,,Drizzle,10,2012-10-14 13:15:00
9:34 AM,46.4,42.8,87,29.70,10.0,NNE,8.1,-,N/A,,Light Drizzle,30,2012-10-14 13:34:00
9:55 AM,46.4,44.6,93,29.68,10.0,NNE,8.1,-,N/A,,Overcast,20,2012-10-14 13:55:00
10:14 AM,46.4,44.6,93,29.67,10.0,NNE,8.1,-,N/A,,Overcast,30,2012-10-14 14:14:00
10:35 AM,46.4,44.6,93,29.65,7.0,NNE,9.2,-,N/A,Rain,Light Rain,30,2012-10-14 14:35:00
10:55 AM,46.4,44.6,93,29.65,7.0,NNE,6.9,-,N/A,,Drizzle,30,2012-10-14 14:55:00
11:14 AM,46.4,44.6,93,29.64,10.0,NNE,8.1,-,N/A,,Drizzle,20,2012-10-14 15:14:00
11:35 AM,46.4,44.6,93,29.64,7.0,North,6.9,-,N/A,Rain,Rain,10,2012-10-14 15:35:00
11:55 AM,46.4,44.6,93,29.63,4.0,North,8.1,-,N/A,Rain,Heavy Rain,10,2012-10-14 15:55:00
12:14 PM,46.4,44.6,93,29.62,1.0,North,8.1,-,N/A,Rain,Heavy Rain,10,2012-10-14 16:14:00
12:35 PM,48.2,44.6,87,29.60,1.2,North,11.5,16.1,N/A,Rain,Heavy Rain,10,2012-10-14 16:35:00
12:54 PM,48.2,44.6,87,29.58,3.0,North,12.7,-,N/A,Rain,Heavy Rain,10,2012-10-14 16:54:00
1:15 PM,48.2,46.4,93,29.57,3.0,North,12.7,19.6,N/A,Rain,Rain,10,2012-10-14 17:15:00
1:35 PM,48.2,46.4,93,29.56,4.0,NNE,13.8,18.4,N/A,Rain,Rain,20,2012-10-14 17:35:00
1:54 PM,48.2,46.4,93,29.54,2.0,North,11.5,-,N/A,,Overcast,10,2012-10-14 17:54:00
2:15 PM,48.2,46.4,93,29.52,4.0,North,13.8,20.7,N/A,Rain,Rain,10,2012-10-14 18:15:00
2:35 PM,48.2,46.4,93,29.51,7.0,NNE,11.5,19.6,N/A,Rain,Rain,20,2012-10-14 18:35:00
2:54 PM,48.2,46.4,93,29.49,3.0,NNE,16.1,27.6,N/A,Rain,Heavy Rain,20,2012-10-14 18:54:00
3:15 PM,48.2,46.4,93,29.48,10.0,NNE,18.4,23.0,N/A,Rain,Light Rain,20,2012-10-14 19:15:00
3:34 PM,48.2,46.4,93,29.47,10.0,North,15.0,21.9,N/A,Rain,Light Rain,10,2012-10-14 19:34:00
3:55 PM,48.2,46.4,93,29.47,7.0,North,11.5,23.0,N/A,Rain,Light Rain,10,2012-10-14 19:55:00
4:15 PM,48.2,46.4,93,29.47,10.0,NNE,10.4,17.3,N/A,Rain,Rain,20,2012-10-14 20:15:00
4:34 PM,48.2,44.6,87,29.46,5.0,North,15.0,19.6,N/A,Rain,Rain,10,2012-10-14 20:34:00
4:55 PM,48.2,44.6,87,29.44,7.0,North,15.0,23.0,N/A,Rain,Rain,360,2012-10-14 20:55:00
5:15 PM,48.2,44.6,87,29.44,5.0,North,15.0,26.5,N/A,Rain,Rain,10,2012-10-14 21:15:00
5:34 PM,46.4,44.6,93,29.44,10.0,North,11.5,23.0,N/A,Rain,Light Rain,10,2012-10-14 21:34:00
5:55 PM,46.4,44.6,93,29.43,10.0,North,13.8,25.3,N/A,Rain,Light Rain,10,2012-10-14 21:55:00
6:14 PM,46.4,44.6,93,29.43,7.0,North,18.4,25.3,N/A,Rain,Light Rain,360,2012-10-14 22:14:00
6:35 PM,46.4,44.6,93,29.42,4.0,North,18.4,26.5,N/A,Rain,Rain,360,2012-10-14 22:35:00
6:55 PM,46.4,44.6,93,29.43,4.0,North,15.0,26.5,N/A,Rain,Light Rain,350,2012-10-14 22:55:00
7:14 PM,46.4,44.6,93,29.43,10.0,North,18.4,25.3,N/A,Rain,Light Rain,350,2012-10-14 23:14:00
7:35 PM,46.4,44.6,93,29.44,7.0,North,17.3,23.0,N/A,Rain,Light Rain,350,2012-10-14 23:35:00
7:55 PM,46.4,42.8,87,29.46,7.0,North,13.8,21.9,N/A,Rain,Light Rain,350,2012-10-14 23:55:00
8:14 PM,44.6,42.8,93,29.47,4.0,North,17.3,25.3,N/A,,Overcast,350,2012-10-15 00:14:00
8:35 PM,44.6,42.8,93,29.48,5.0,NNW,17.3,21.9,N/A,Rain,Rain,340,2012-10-15 00:35:00
8:54 PM,44.6,42.8,93,29.48,3.0,North,16.1,26.5,N/A,,Overcast,350,2012-10-15 00:54:00
9:15 PM,44.6,42.8,93,29.48,5.0,NNW,13.8,24.2,N/A,,Overcast,340,2012-10-15 01:15:00
9:35 PM,44.6,42.8,93,29.48,7.0,NNW,18.4,28.8,N/A,,Overcast,330,2012-10-15 01:35:00
9:54 PM,44.6,41.0,87,29.48,7.0,NNW,19.6,29.9,N/A,,Overcast,340,2012-10-15 01:54:00
10:15 PM,44.6,41.0,87,29.48,5.0,NNW,16.1,24.2,N/A,,Overcast,340,2012-10-15 02:15:00
10:35 PM,44.6,41.0,87,29.49,7.0,NNW,17.3,31.1,N/A,Rain,Light Rain,340,2012-10-15 02:35:00
10:54 PM,44.6,41.0,87,29.49,10.0,NNW,19.6,27.6,N/A,Rain,Light Rain,340,2012-10-15 02:54:00
11:15 PM,44.6,41.0,87,29.50,10.0,NW,16.1,24.2,N/A,Rain,Light Rain,320,2012-10-15 03:15:00
11:34 PM,44.6,41.0,87,29.50,10.0,NNW,21.9,28.8,N/A,Rain,Rain,330,2012-10-15 03:34:00
11:55 PM,42.8,39.2,87,29.51,10.0,NNW,16.1,24.2,N/A,Rain,Light Rain,330,2012-10-15 03:55:00